Regional Weather Roundup
Issued by NWS Burlington, VT

Home | Current Version | Previous Version | Text Only | Print | Product List | Glossary On
Versions: 1 2 3 4 5 6 7 8 9 10 11 12 13 14 15 16 17 18 19 20 21 22 23
000
ASUS41 KBTV 251330
RWRBTV
VERMONT REGIONAL WEATHER ROUNDUP
NATIONAL WEATHER SERVICE BURLINGTON VT
900 AM EDT MON SEP 25 2017

NOTE: "FAIR" INDICATES FEW OR NO CLOUDS BELOW 12,000 FEET WITH NO
SIGNIFICANT WEATHER AND/OR OBSTRUCTIONS TO VISIBILITY.

* THESE REPORTS ARE NOT UNDER NWS QUALITY CONTROL AND/OR DO NOT
  REPORT WEATHER SUCH AS PRECIPITATION AND FOG.

VTZ001>019-251400-
_____VERMONT_____


CITY           SKY/WX    TMP DP  RH WIND       PRES   REMARKS
BURLINGTON     SUNNY     73  68  84 CALM      30.11R
MONTPELIER     FOG       64  64 100 CALM      30.18S VSB 1/4
MORRISVILLE    FOG       64  64 100 N5        30.16R VSB 1/4
ST. JOHNSBURY*   N/A     64  64 100 MISG      30.13R
LYNDONVILLE*   FOG       64  64  97 CALM      30.18S VSB<1/4
MIDDLEBURY*    FAIR      71  68  89 CALM      30.12S
RUTLAND*       SUNNY     69  65  86 CALM      30.13S
SPRINGFIELD    MOSUNNY   64  63  96 CALM      30.14S
HIGHGATE*      FAIR      74  70  85 CALM      30.10R
NEWPORT*       FAIR      69  67  95 SW3       30.15R
BENNINGTON     SUNNY     73  67  81 CALM      30.11F
SUTTON*          N/A     68 N/A N/A MISG        N/A
ISLAND POND*     N/A     64 N/A N/A CALM        N/A
GALLUP MILLS*    N/A     72 N/A N/A MISG        N/A
UNION VILLAGE*   N/A     66 N/A N/A MISG        N/A
MT. MANSFIELD*   N/A     72 N/A N/A CALM        N/A

_____LAKE CHAMPLAIN_____


CITY           SKY/WX    TMP DP  RH WIND       PRES   REMARKS
BURTON ISLAND*   N/A     72  68  88 SW5         N/A
COLCHESTER RF*   N/A     70  70 100 S5          N/A
DIAMOND ISL*     N/A     68  66  94 S2          N/A

$$

NYZ007-026>031-035-052-083-087-251400-
_____NORTHERN NEW YORK_____


CITY           SKY/WX    TMP DP  RH WIND       PRES   REMARKS
PLATTSBURGH    SUNNY     72  66  81 SE3       30.10R
SARANAC LAKE   MOSUNNY   62  62 100 CALM      30.16S
MASSENA        SUNNY     72  69  90 S3        30.10S
OGDENSBURG*    FAIR      73  70  91 SW3       30.10S
POTSDAM*       SUNNY     75  75 100 SW6       30.11R
STARK FALLS*     N/A     70 N/A N/A SE6         N/A
WATERTOWN      SUNNY     71  67  87 CALM      30.11R FOG
FT DRUM        SUNNY     70  64  83 SE3       30.12R
ALBANY         SUNNY     72  66  81 N5        30.11R
GLENS FALLS    SUNNY     70  67  90 CALM      30.10F

$$
NHZ002-005-011-251400-
_____NEW HAMPSHIRE_____


CITY           SKY/WX    TMP DP  RH WIND       PRES   REMARKS
LEBANON        FOG       67  66  97 CALM      30.13S VSB 1/4
KEENE          MOSUNNY   70  66  88 CALM      30.12S
MT WASHINGTON  MOSUNNY   59  55  88 N3          N/A
PLYMOUTH       PTSUNNY   66  65  97 CALM      30.12S FOG
WHITEFIELD     MOSUNNY   66  64  93 CALM      30.16R FOG

$$

_____REGIONAL QUEBEC LOCATIONS_____


CITY           SKY/WX    TMP DP  RH WIND       PRES   REMARKS
MONTREAL       SUNNY     73  68  83 SW6       30.08R
QUEBEC CITY    PTSUNNY   63  59  88 CALM      30.08S
SHERBROOKE     SUNNY     70  68  94 VRB2      30.11S

_____REGIONAL ONTARIO LOCATIONS_____


CITY           SKY/WX    TMP DP  RH WIND       PRES   REMARKS
OTTAWA         SUNNY     70  68  94 W2        30.10R

______KEY______
VSB  - VISIBILITY IN MILES
WCI  - WIND CHILL INDEX
HX   - HEAT INDEX
$$
NNNN




USA.gov is the U.S. government's official web portal to all federal, state and local government web resources and services.